This is the latest recevied weather packets stored in our database for station/object N0NAI-13. If no packets are shown the sender has not sent any weather packets the latest 10 day(s).
| Time | Temp. | Humidity | Pressure | Rain* | Wind** | Luminosity | Snow |
|---|---|---|---|---|---|---|---|
| 1778189124 | 17.22° C | 27% | 1012.2 hPa | 0 mm | - | - | - |
| 1778188521 | 17.22° C | 26% | 1012.2 hPa | 0 mm | - | - | - |
| 1778187919 | 16.67° C | 25% | 1012.4 hPa | 0 mm | - | - | - |
| 1778187315 | 17.22° C | 27% | 1012.5 hPa | 0 mm | - | - | - |
| 1778186730 | 16.67° C | 28% | 1012.7 hPa | 0 mm | - | - | - |
| 1778186115 | 16.67° C | 27% | 1012.7 hPa | 0 mm | - | - | - |
| 1778185518 | 16.67° C | 28% | 1012.8 hPa | 0 mm | - | - | - |
| 1778184921 | 16.67° C | 28% | 1012.9 hPa | 0 mm | - | - | - |
| 1778184323 | 16.67° C | 28% | 1012.9 hPa | 0 mm | - | - | - |
| 1778183726 | 16.67° C | 30% | 1013 hPa | 0 mm | - | - | - |
| 1778183128 | 15.56° C | 29% | 1013 hPa | 0 mm | - | - | - |
| 1778182531 | 16.11° C | 29% | 1013 hPa | 0 mm | - | - | - |
| 1778181916 | 16.67° C | 30% | 1013.1 hPa | 0 mm | - | - | - |
| 1778181319 | 15.56° C | 31% | 1013.3 hPa | 0 mm | - | - | - |
| 1778180722 | 16.11° C | 31% | 1013.1 hPa | 0 mm | - | - | - |
| 1778180125 | 15.56° C | 32% | 1013.3 hPa | 0 mm | - | - | - |
| 1778179528 | 15.56° C | 32% | 1013.3 hPa | 0 mm | - | - | - |
| 1778178931 | 15.56° C | 33% | 1013.3 hPa | 0 mm | - | - | - |
| 1778178327 | 15.56° C | 34% | 1013.4 hPa | 0 mm | - | - | - |
| 1778177718 | 15° C | 34% | 1013.4 hPa | 0 mm | - | - | - |
| 1778177121 | 15° C | 34% | 1013.5 hPa | 0 mm | - | - | - |
| 1778176518 | 14.44° C | 35% | 1013.5 hPa | 0 mm | - | - | - |
| 1778175927 | 15° C | 36% | 1013.6 hPa | 0 mm | - | - | - |
| 1778175329 | 15° C | 37% | 1013.8 hPa | 0 mm | - | - | - |
| 1778174733 | 15° C | 40% | 1013.8 hPa | 0 mm | - | - | - |
* Rain latest hour (hover to see other rain measurements)
** Current wind speed in m/s (hover to see current wind gust speed)